Theta_e
313 314 313 313 313 313 312 312 312 312 313 313 313 313 313 313 313 304 298 303 310 320 323 308 305 301 298 296 299 301 291 288 292 295 298 303 299 303 307 304 308 308 307 313 316
312 313 313 313 313 313 313 312 312 312 312 313 313 312 312 312 306 300 309 316 323 323 306 304 299 298 296 295 296 296 288 291 296 298 298 299 298 301 301 302 303 304 309 313 313
313 312 312 313 313 313 312 312 312 312 312 312 311 311 313 311 299 305 324 320 323 327 303 303 299 295 291 294 295 292 289 293 298 300 300 299 299 302 299 298 302 302 305 308 312
313 313 312 312 312 312 312 312 311 312 311 311 310 311 313 306 293 304 333 325 326 320 301 298 300 292 289 289 293 291 296 297 295 299 297 298 301 300 300 301 305 305 306 308 308
313 312 312 311 312 312 311 311 311 311 311 310 310 312 303 291 294 311 330 327 312 302 300 302 297 292 288 290 291 289 292 294 296 295 295 298 297 298 298 303 305 305 306 306 307
313 312 312 312 312 312 311 311 311 311 311 311 311 312 299 283 295 316 320 310 305 302 303 303 299 296 292 290 290 292 292 293 294 294 295 295 297 297 299 303 302 303 303 303 307
314 313 312 312 312 312 313 312 311 313 312 312 312 310 299 289 303 313 310 303 304 306 305 306 304 297 294 291 292 292 289 292 292 293 293 294 292 294 299 301 300 301 302 302 304
314 314 312 312 312 312 313 313 313 313 313 313 313 304 291 300 305 309 305 304 306 306 306 308 302 295 292 292 292 288 286 283 290 292 295 293 287 295 298 297 297 299 300 302 302
314 313 313 312 312 312 312 312 313 314 316 314 302 297 297 312 307 309 307 303 306 306 306 310 298 293 293 287 284 284 280 282 288 292 292 290 288 295 298 296 296 297 298 299 301
314 313 313 312 312 312 311 313 314 314 313 312 309 295 300 302 309 309 305 305 303 302 299 297 292 289 286 285 279 281 282 284 285 291 289 289 289 293 295 295 296 296 296 297 299
314 313 313 313 312 311 306 303 299 297 302 299 299 297 303 309 312 302 305 303 301 297 290 291 288 285 287 288 289 288 286 285 289 293 289 289 290 292 293 293 293 294 295 296 297
314 313 313 312 312 310 304 298 302 302 296 304 304 302 306 308 302 306 303 296 294 289 291 288 285 291 291 291 289 288 285 285 289 292 289 289 290 291 292 292 294 294 295 296 296
312 312 312 312 311 304 301 303 307 304 295 298 303 302 303 304 300 302 299 296 292 289 288 286 290 294 292 290 289 287 285 286 287 292 291 289 289 289 292 293 294 295 296 296 297
311 311 311 310 303 301 301 307 305 303 289 294 299 303 305 303 299 308 303 299 293 290 289 288 292 292 289 289 289 284 290 291 292 288 283 289 282 289 291 291 292 294 295 295 296
311 311 311 309 299 296 304 305 305 304 281 298 299 307 304 299 298 300 305 299 293 292 291 289 289 288 288 290 292 288 293 293 292 287 283 285 280 286 290 290 291 295 294 296 297
310 311 310 303 300 302 305 304 305 291 282 297 298 296 296 296 297 298 299 300 298 292 291 291 294 292 292 293 294 296 292 289 287 283 278 284 282 283 286 289 291 295 296 297 298
310 310 307 304 297 302 302 303 289 285 297 294 295 297 293 292 294 295 293 291 288 284 284 289 291 293 295 290 293 290 285 278 276 277 279 285 282 285 290 294 294 296 298 298 296
308 307 304 304 301 301 304 296 283 291 293 298 296 296 293 293 293 293 291 287 291 288 284 282 283 292 297 292 288 286 286 279 273 275 280 285 280 284 292 294 297 298 297 297 297
306 299 298 302 304 302 297 287 286 295 295 294 294 291 290 292 292 291 290 289 291 291 285 283 285 294 298 296 293 288 284 288 281 279 275 280 284 290 293 294 296 296 298 297 298
298 294 298 305 304 300 291 288 293 299 298 296 289 292 287 289 289 288 288 294 293 294 291 287 282 290 295 295 294 291 292 282 279 271 271 277 279 282 287 290 295 295 296 297 298
294 293 301 302 304 296 287 290 297 301 300 295 291 290 290 289 290 289 290 294 296 292 293 290 286 286 290 288 286 287 285 284 282 279 272 274 277 287 289 292 292 294 297 298 299
293 291 302 303 295 290 290 294 298 299 301 299 296 293 291 291 289 290 291 294 296 294 289 291 289 282 285 288 292 289 286 285 277 276 283 280 280 292 290 291 293 294 297 298 301
290 289 300 300 288 286 290 293 297 296 297 296 294 295 293 289 286 290 292 296 296 294 292 292 285 279 281 284 289 286 289 287 284 280 278 278 279 291 292 292 294 294 296 298 301
292 288 292 292 291 288 290 290 292 298 297 298 296 295 292 289 290 287 288 293 295 294 300 297 286 283 280 284 283 281 286 288 284 274 279 281 283 288 290 290 293 294 296 298 300
293 290 290 285 287 288 291 293 290 290 297 297 294 293 290 285 286 285 289 290 293 295 293 289 281 284 286 287 285 284 285 285 283 285 280 284 284 288 290 292 293 295 296 297 298
290 290 292 290 294 292 291 291 290 293 293 291 291 293 292 288 288 285 288 287 286 290 288 286 281 283 282 287 286 284 286 287 286 286 285 285 285 291 294 295 293 294 295 295 295
292 293 295 292 291 289 290 291 292 293 294 295 295 292 290 292 295 293 292 291 289 287 285 283 281 280 278 284 284 280 284 285 287 289 287 283 288 293 292 293 293 293 294 293 295
Wind_Speed
16 15 14 13 13 13 12 12 11 10 10 10 11 12 12 13 13 1 7 11 7 11 1 2 1 3 3 2 2 4 4 3 5 6 6 4 5 1 4 6 1 2 4 7 5
17 16 15 14 13 12 12 12 11 10 10 10 10 10 10 11 5 7 13 10 13 6 4 3 3 4 3 2 1 4 4 9 5 4 6 3 2 7 3 6 6 6 7 5 5
18 17 16 14 13 12 11 11 11 10 9 9 9 9 9 8 3 6 8 13 10 5 3 2 3 4 3 2 2 3 5 5 3 5 5 5 7 5 5 9 10 9 6 11 8
19 18 17 15 13 12 11 10 10 9 8 8 8 8 10 1 4 4 1 14 11 5 3 4 3 4 4 4 4 3 7 5 3 5 4 8 5 10 8 12 9 10 7 9 8
19 19 17 16 14 12 11 9 9 9 8 7 6 6 2 1 9 3 12 11 7 6 7 6 5 5 5 4 4 4 3 2 6 7 6 9 11 12 10 8 14 12 11 11 11
18 19 18 16 14 12 11 10 9 8 7 6 5 3 1 3 1 3 9 7 6 5 5 5 6 5 3 2 4 6 3 4 5 6 5 6 10 5 2 5 10 9 12 9 11
18 19 19 17 15 14 12 11 10 10 7 5 4 2 0 12 2 2 8 6 5 4 4 3 4 3 3 2 0 1 4 6 4 5 6 5 6 6 8 7 9 11 10 6 9
20 19 19 18 17 15 14 12 10 9 7 4 4 2 8 4 0 4 4 3 4 5 2 6 2 2 2 2 7 4 5 3 6 3 7 6 8 7 8 3 7 11 9 11 8
20 19 19 19 18 17 15 15 11 6 4 7 2 1 9 5 2 5 6 4 6 4 5 4 3 2 5 5 5 7 1 0 8 3 4 3 5 7 8 9 9 7 9 9 12
21 20 20 19 18 17 16 9 6 7 5 4 4 3 5 3 3 5 5 2 3 3 4 5 5 3 4 5 3 2 1 3 5 6 3 10 13 10 13 8 10 9 8 8 9
23 22 20 20 18 12 9 1 2 0 2 9 6 5 4 5 2 2 4 6 3 2 3 2 4 7 9 8 5 3 4 5 7 12 4 11 12 11 10 7 11 11 10 9 10
24 23 23 20 17 15 3 3 2 3 9 12 13 8 5 3 5 2 8 6 5 6 3 5 6 11 6 4 5 5 4 7 7 8 5 9 16 9 6 7 9 9 10 12 9
24 24 23 23 18 4 3 5 3 2 2 7 5 5 5 9 6 6 9 4 5 6 6 7 9 6 6 4 4 5 5 5 8 4 5 8 14 4 3 6 8 9 10 9 11
24 23 23 25 1 2 4 1 3 5 4 6 4 3 5 6 4 9 8 6 1 10 7 6 5 7 2 7 7 6 7 7 4 1 5 3 19 10 7 9 5 11 11 11 11
25 24 19 8 4 3 0 5 0 2 4 1 1 6 5 7 1 2 4 3 8 7 7 10 4 3 5 10 7 10 5 7 3 4 2 5 10 5 6 11 12 14 10 13 12
25 26 21 1 2 7 7 5 3 3 5 2 4 5 4 3 2 4 4 4 3 6 3 7 1 6 9 2 5 2 2 3 4 2 4 9 9 1 2 7 6 11 14 13 16
28 30 18 3 4 3 5 2 4 3 4 4 3 1 5 5 2 3 5 5 6 3 5 5 11 5 5 3 2 5 6 4 4 3 13 4 5 10 10 14 7 11 19 17 11
30 32 4 4 3 5 2 4 3 2 4 5 5 6 2 1 2 2 2 1 3 3 2 5 9 7 4 6 8 5 7 6 7 9 15 3 8 7 8 6 4 8 7 11 10
28 4 3 4 4 2 6 2 2 3 4 6 8 3 1 1 2 2 2 3 3 5 5 3 5 3 2 3 5 4 4 1 1 2 3 6 7 7 11 7 6 9 9 12 12
6 5 4 5 2 3 5 4 0 4 6 5 3 3 2 1 1 2 3 3 4 2 3 3 3 2 1 4 4 4 5 4 3 4 6 4 7 10 10 8 9 11 12 15 11
3 4 4 8 2 6 2 3 1 10 15 7 7 5 3 3 2 2 3 1 3 1 5 3 4 4 2 4 8 1 1 3 2 4 4 7 6 6 8 5 7 12 12 15 15
4 3 4 5 5 2 2 6 7 2 6 8 8 4 3 4 4 5 7 4 1 1 2 0 5 5 10 1 3 3 7 7 5 5 4 4 15 9 7 3 6 9 13 14 16
3 4 5 3 2 3 5 5 4 8 1 2 5 2 8 6 5 3 2 4 4 3 2 3 2 2 6 2 3 4 6 5 3 3 8 6 12 4 7 10 8 8 12 12 14
3 5 6 6 3 5 6 3 5 10 5 1 8 6 5 5 4 7 2 3 3 1 5 3 5 9 11 8 5 4 6 6 6 4 6 15 21 19 17 8 8 8 8 11 13
4 1 2 5 3 3 3 4 11 7 2 2 3 6 2 5 4 8 4 7 13 15 3 6 6 5 5 5 4 5 9 9 10 15 9 23 16 21 6 6 7 7 7 9 11
2 3 4 4 6 6 1 2 8 8 4 4 4 6 8 5 6 9 13 11 8 4 4 1 3 0 4 6 9 12 15 14 15 11 16 17 22 10 3 5 5 7 9 14 14
1 2 1 3 3 3 2 4 7 11 4 10 6 6 8 16 13 15 15 16 11 6 6 4 4 2 7 3 5 9 13 13 4 6 6 7 5 2 4 6 5 8 13 17 15
Wind_Direction
335 332 325 320 316 313 310 307 309 307 308 309 310 314 319 322 325 337 241 220 194 226 121 359 92 115 88 114 104 127 74 204 223 185 237 314 354 318 300 275 329 253 279 274 324
341 335 330 325 318 312 307 305 304 302 307 309 311 314 316 324 307 252 245 216 213 141 156 140 130 115 62 111 131 119 143 222 206 212 279 291 288 300 294 305 287 292 307 332 29
338 338 335 330 321 314 309 303 300 301 303 308 310 311 316 326 293 249 189 206 205 188 89 115 117 121 106 115 185 147 196 214 244 233 264 277 303 246 266 270 250 278 270 310 293
338 336 336 332 326 318 310 302 300 300 301 305 303 305 312 145 140 2 152 162 169 143 82 95 84 95 128 178 194 173 230 191 241 238 259 264 284 275 223 260 256 253 245 273 268
340 338 335 334 329 322 313 303 297 296 297 295 302 302 4 261 252 333 121 129 107 130 155 150 146 146 173 186 168 187 264 263 271 288 240 259 248 253 276 269 265 267 267 240 256
339 339 336 330 327 320 313 304 296 292 292 292 284 287 212 264 171 151 128 131 139 145 177 167 182 198 165 158 155 191 217 256 269 247 243 238 265 163 325 236 272 261 266 235 232
337 337 337 331 325 321 310 304 295 288 289 282 263 246 186 233 47 154 155 168 175 177 168 215 151 143 124 354 103 16 332 338 251 244 241 168 292 240 260 280 262 273 275 267 239
336 336 337 334 327 320 313 304 291 282 271 250 219 249 246 234 291 142 166 202 198 217 249 279 164 61 118 107 20 40 42 5 286 318 270 140 281 280 297 274 266 280 288 290 266
334 334 333 332 329 324 318 305 281 253 252 161 124 200 273 323 244 197 159 191 156 205 232 246 121 109 36 84 17 10 200 240 311 230 272 209 280 287 314 312 285 254 271 281 293
332 332 330 329 328 327 325 323 125 128 127 181 256 323 275 226 184 181 189 97 49 12 6 70 54 80 44 73 225 198 214 238 247 281 189 278 271 262 278 284 279 287 272 266 269
330 329 329 326 325 323 333 326 25 312 226 203 187 241 288 276 263 179 149 99 69 86 194 24 89 216 220 198 197 217 202 228 257 267 245 263 273 276 263 290 284 292 293 277 270
329 330 326 324 321 321 146 198 209 185 297 232 246 245 269 26 338 172 124 133 137 189 129 24 247 229 201 186 201 211 246 263 272 261 170 274 280 245 226 239 239 250 278 288 297
329 331 327 323 323 111 233 227 113 142 270 293 188 201 201 151 218 260 151 146 162 179 178 170 231 109 174 214 203 229 190 239 225 310 297 290 288 275 229 223 254 261 245 261 253
328 331 332 326 37 348 250 129 315 175 33 274 242 238 132 133 231 203 188 142 192 202 160 225 240 226 208 249 148 280 204 229 227 102 262 359 288 301 256 268 251 259 263 257 264
326 329 334 322 293 239 96 321 261 69 340 167 145 155 161 162 213 199 169 104 190 181 132 236 173 157 204 231 147 231 179 192 215 221 27 277 280 281 345 293 268 280 270 268 262
325 323 335 104 196 246 312 315 67 35 256 355 125 155 142 249 290 122 153 87 154 153 271 239 177 175 210 251 185 92 105 53 47 116 216 236 236 101 263 243 292 309 292 278 282
324 319 320 183 233 314 296 63 53 215 324 11 12 72 197 210 178 160 180 170 189 132 240 302 258 232 177 205 35 88 73 313 317 268 269 237 276 257 274 286 305 318 305 295 279
323 313 239 214 276 351 65 61 175 349 348 350 333 314 255 17 62 14 91 256 213 175 154 193 287 176 181 178 184 172 160 174 243 268 282 163 252 260 262 264 294 285 305 315 318
322 316 305 277 214 168 79 102 239 55 352 315 314 247 189 211 112 63 243 229 227 157 171 182 269 338 64 126 131 181 184 138 356 245 324 222 297 311 272 275 287 321 339 325 318
314 333 308 329 149 67 80 228 259 31 323 318 285 15 276 240 198 182 227 210 153 148 107 228 282 274 128 118 57 143 143 64 11 297 267 257 270 262 283 291 314 315 326 317 311
358 29 282 333 79 50 144 243 306 18 10 348 326 313 277 277 238 230 232 317 30 52 135 153 143 279 22 204 186 87 126 69 133 165 221 307 254 226 254 289 312 319 325 323 319
348 49 321 354 52 51 65 324 322 35 359 328 336 347 348 345 256 223 235 202 50 66 230 125 155 222 219 319 303 153 191 156 152 237 226 227 273 245 287 340 339 323 326 326 324
360 283 316 38 79 32 337 335 313 25 208 287 251 4 347 325 318 270 318 111 107 73 50 181 253 296 324 22 348 201 196 180 124 94 214 241 263 285 319 319 344 321 314 331 326
27 351 333 25 32 57 4 286 323 347 312 248 262 342 9 281 251 278 257 332 27 9 340 174 197 221 246 251 166 195 212 198 161 158 241 235 277 279 286 295 307 301 307 320 334
25 11 171 330 343 332 281 289 294 294 305 323 272 210 201 268 288 243 288 324 311 295 231 168 219 206 256 255 215 235 239 224 205 239 220 275 263 280 263 244 273 292 301 322 336
50 13 357 298 306 312 180 276 284 310 354 284 228 234 248 248 259 292 293 267 251 242 196 201 245 238 261 266 255 255 252 238 240 251 255 260 271 277 240 261 274 297 324 318 315
300 311 271 295 301 293 240 294 349 340 276 256 289 314 281 271 257 271 274 267 247 213 197 175 158 72 276 262 313 278 250 237 201 230 227 233 250 197 275 310 316 313 314 303 300